Theta_e
311 311 311 311 310 308 305 299 297 309 306 294 291 291 296 301 301 302 299 298 296 293 293 291 291 292 296 301 302 295 300 295 291 296 303 304 296 294 292 288 286 287 288 289
310 311 310 310 310 308 303 296 297 308 303 289 289 294 299 300 299 299 298 296 297 296 292 288 293 295 300 302 300 300 301 292 288 290 296 295 294 295 293 291 289 289 287 289
310 310 310 311 310 309 301 296 294 298 299 296 293 292 293 295 302 300 299 297 297 295 292 292 290 294 300 302 301 310 304 293 292 288 292 296 295 298 298 293 288 290 291 299
310 310 311 311 310 309 302 297 294 296 290 293 293 292 294 294 295 298 299 295 296 294 290 292 292 295 298 301 304 302 298 290 293 296 298 298 296 296 298 296 297 292 295 299
309 310 311 311 309 307 299 295 295 297 293 294 293 292 291 294 296 295 294 293 297 296 291 293 292 295 294 295 298 298 297 290 294 292 297 297 295 298 299 300 298 296 299 301
308 310 310 311 310 305 297 300 300 298 294 292 290 291 293 295 296 298 299 298 295 294 296 300 301 301 301 299 297 295 294 294 290 287 295 295 291 298 300 300 299 300 299 304
307 309 310 311 312 306 298 300 299 294 289 292 292 296 296 296 296 294 298 299 295 300 303 302 302 300 300 299 299 300 294 292 293 288 291 285 297 304 304 302 303 309 308 311
307 308 310 311 312 309 299 299 300 297 290 294 294 295 294 295 295 295 297 300 301 303 299 294 291 291 293 297 300 300 299 294 292 288 289 295 304 309 305 306 304 313 310 313
307 307 309 310 312 311 301 298 302 299 295 290 298 294 295 291 291 293 297 302 303 301 297 292 285 286 292 293 296 302 299 299 293 292 289 289 299 310 315 312 299 315 315 314
308 307 309 310 313 312 302 299 308 303 298 298 295 292 293 297 295 291 294 298 297 299 292 289 288 290 298 291 288 289 292 294 289 290 288 295 307 313 314 300 300 316 317 317
308 307 308 311 313 313 304 299 307 306 300 298 301 301 297 295 294 292 297 297 297 294 292 290 291 295 297 294 295 294 295 293 290 292 290 288 311 311 304 307 312 318 319 319
307 307 308 311 312 313 309 300 303 306 303 298 300 303 304 302 302 299 300 299 299 300 295 296 296 295 298 296 290 301 293 297 294 298 299 307 312 310 315 319 318 320 320 320
307 307 307 310 312 313 309 299 301 301 300 298 298 297 303 305 305 306 297 301 303 301 304 298 300 296 301 294 294 296 301 305 298 301 306 308 312 315 318 322 320 320 318 319
307 307 307 309 312 313 312 306 306 306 301 294 294 303 301 306 304 304 304 303 307 307 306 301 299 297 299 296 298 297 301 302 300 302 308 311 314 316 316 320 322 320 320 320
307 307 307 308 311 312 308 306 308 309 302 295 296 301 303 303 303 303 304 302 301 302 301 300 298 302 300 300 301 298 303 301 299 301 308 308 311 316 318 320 321 321 319 318
307 307 307 307 310 311 304 294 308 308 307 298 292 298 299 302 304 305 301 302 302 303 302 301 304 306 300 297 294 302 305 308 307 305 313 313 315 317 323 320 321 321 319 319
307 307 307 307 309 309 300 294 307 309 309 299 295 294 299 305 306 306 306 305 305 304 303 302 302 303 304 300 296 302 306 309 309 312 312 312 320 319 322 321 321 319 319 318
306 307 307 307 310 309 303 305 309 309 304 302 294 293 294 303 300 302 310 306 306 307 305 305 302 303 302 298 302 304 307 308 310 313 314 316 321 320 320 319 319 316 315 314
307 307 307 309 307 303 300 312 312 309 300 295 297 292 289 301 300 300 303 307 300 307 303 301 303 299 298 302 303 304 308 311 311 315 316 318 319 318 318 318 317 315 314 314
307 302 303 297 303 310 311 303 302 300 301 300 295 295 291 294 294 292 296 304 301 295 299 303 301 297 304 305 307 307 310 314 313 311 314 314 316 317 317 317 318 316 315 314
301 298 299 301 308 303 301 298 297 297 295 297 297 296 294 300 291 291 298 295 298 297 299 300 298 295 300 307 307 309 313 316 315 317 317 319 319 318 317 317 316 316 315 313
300 299 303 302 301 294 295 293 294 295 292 295 295 298 298 299 303 300 302 297 298 292 301 300 294 299 305 307 311 313 314 317 318 319 319 320 320 320 319 317 316 316 316 315
298 301 297 295 296 288 289 287 291 290 298 299 302 299 303 301 306 303 300 295 294 301 296 294 298 304 307 309 313 315 316 317 318 318 320 321 320 320 318 316 317 317 315 315
292 291 287 290 289 291 291 290 292 296 301 301 299 296 295 299 297 302 297 299 299 294 293 297 303 305 306 308 313 318 317 318 317 319 320 319 318 318 318 317 316 316 315 314
291 291 285 288 293 294 296 298 299 298 304 298 296 296 297 295 295 299 298 295 293 295 296 300 305 309 309 309 311 313 315 319 319 320 319 318 317 316 316 316 316 316 315 313
292 290 288 290 291 289 293 298 298 303 301 298 297 293 292 294 297 295 294 293 293 297 303 304 304 308 310 311 312 316 317 316 315 318 317 318 317 316 315 316 316 315 315 313
290 286 289 288 288 289 291 296 299 303 296 292 294 291 293 299 295 293 297 294 299 303 306 306 305 306 308 312 315 317 319 318 317 316 315 316 316 315 315 313 314 315 315 315
Wind_Speed
17 18 19 21 22 25 9 3 3 5 5 6 2 3 4 5 6 7 5 4 4 2 3 2 2 6 3 16 12 8 2 3 5 12 15 14 10 13 9 6 7 3 5 7
16 17 19 19 18 15 4 3 3 5 5 4 4 5 5 4 6 4 4 3 4 2 1 4 4 3 5 9 7 4 6 4 6 10 10 3 4 6 7 4 5 8 7 7
14 16 17 17 16 13 3 2 4 6 6 2 4 4 3 5 5 1 4 2 3 4 2 5 5 8 6 11 13 12 4 6 10 14 10 12 10 20 14 9 6 6 8 8
15 16 17 17 14 12 2 3 1 2 3 3 3 0 2 2 5 4 6 5 5 4 4 6 8 5 10 9 14 7 8 8 9 20 22 18 25 20 25 17 21 10 13 12
14 15 16 18 12 10 4 3 3 4 1 3 3 2 1 3 3 2 4 3 6 5 6 9 17 14 4 9 6 4 2 8 13 18 21 18 24 23 27 22 20 10 6 8
13 14 16 17 13 7 2 2 2 4 3 2 2 1 3 4 6 5 2 5 11 13 16 12 10 12 16 18 16 15 7 8 4 19 21 12 18 26 27 24 8 11 11 9
12 13 14 16 13 4 1 1 2 3 3 0 1 5 6 4 3 5 12 8 6 6 11 15 12 12 18 19 23 17 12 7 5 11 6 15 16 15 22 17 12 7 5 20
11 12 12 13 14 5 2 2 2 2 3 1 7 5 3 6 6 5 9 10 6 9 7 4 6 5 6 8 7 5 16 9 5 6 4 11 4 5 8 9 9 5 9 14
11 11 12 13 13 4 3 2 1 0 1 4 4 2 4 5 5 5 4 8 9 2 3 2 3 4 4 5 11 17 11 12 11 4 3 6 7 4 4 3 5 7 15 23
12 12 13 12 11 2 3 2 2 2 2 4 2 3 2 3 1 4 6 7 7 2 2 3 5 6 3 4 6 6 6 5 11 6 5 13 6 4 2 6 9 16 25 28
11 12 12 12 10 4 4 4 3 2 3 6 7 6 8 4 3 3 5 7 1 3 3 2 4 3 4 3 7 2 7 5 5 5 6 12 3 4 5 4 3 14 18 18
11 12 12 12 11 6 4 2 3 1 3 6 4 10 15 15 18 8 3 4 2 3 2 3 4 6 5 2 4 6 3 1 4 4 7 5 8 6 7 4 3 6 15 14
10 11 12 12 11 8 6 2 2 1 3 6 4 8 7 9 14 12 5 4 7 6 5 3 4 5 1 4 5 4 3 5 6 4 4 6 8 3 15 9 10 11 12 16
10 11 11 12 12 10 4 3 2 1 3 5 6 2 10 8 10 13 18 15 1 2 2 3 4 5 3 3 6 4 6 5 4 7 11 10 3 6 8 7 11 15 12 12
10 12 12 13 12 11 3 3 4 5 2 4 7 17 14 2 8 17 19 14 12 6 4 4 5 3 4 3 3 4 5 5 2 4 6 5 8 9 9 4 9 14 20 13
11 12 12 13 12 7 2 4 0 4 3 4 5 6 7 5 5 9 9 13 7 5 3 4 5 6 3 5 4 7 6 5 6 7 5 6 9 9 7 6 4 9 15 16
11 12 12 13 12 2 3 5 2 4 2 3 5 5 6 5 3 1 3 7 4 5 4 6 6 6 3 3 13 6 9 11 8 11 4 5 2 3 9 14 11 10 11 14
11 12 12 13 7 5 5 5 13 6 2 2 4 6 6 2 4 3 3 4 5 6 4 2 3 2 4 9 11 13 14 15 14 8 6 6 5 16 12 13 14 14 13 15
10 12 15 3 2 3 5 4 9 4 3 3 4 3 5 5 3 3 4 2 3 2 4 4 4 4 9 11 10 7 8 7 7 2 5 6 4 17 17 14 10 11 11 13
10 3 1 3 3 5 8 2 3 4 4 3 5 2 7 3 4 5 3 3 4 3 6 3 4 7 18 10 12 9 8 8 5 5 8 9 7 11 11 9 8 8 10 13
2 2 3 3 7 1 3 3 4 3 4 5 5 7 8 3 4 5 4 3 3 3 3 4 3 6 4 7 9 9 11 12 13 9 4 10 10 22 20 14 10 11 12 12
0 3 4 2 2 3 5 3 3 5 6 3 4 5 6 4 4 3 4 4 2 7 3 3 4 4 6 8 6 3 7 9 11 6 6 8 13 17 20 18 15 13 11 11
2 3 3 3 4 6 6 5 4 4 3 3 2 3 3 2 4 4 3 5 6 1 2 5 5 4 5 8 6 2 3 6 6 7 7 9 9 13 19 18 15 14 11 11
2 3 6 5 6 5 6 4 3 4 4 5 3 3 2 2 1 1 6 6 0 3 3 3 4 5 7 7 6 5 2 6 9 6 8 16 14 15 16 19 16 15 14 12
3 4 6 7 6 3 2 4 4 7 2 3 4 3 2 3 3 5 7 4 4 4 3 3 4 6 7 9 8 5 2 4 2 5 9 13 14 15 15 18 16 14 13 12
4 5 5 5 4 5 3 2 4 4 2 2 0 2 3 5 4 5 7 3 4 2 3 4 5 6 6 8 10 7 1 2 3 3 3 11 15 16 16 16 14 13 14 13
6 5 4 4 4 4 3 3 3 3 2 1 0 2 3 5 5 4 2 3 3 6 7 5 6 7 11 9 10 6 6 1 2 1 9 12 12 14 15 15 10 13 13 13
Wind_Direction
346 347 346 348 351 344 31 10 39 311 10 51 28 57 336 339 358 8 15 106 71 82 6 289 265 235 327 8 356 334 268 255 254 255 285 277 256 243 187 170 261 238 178 256
345 347 344 347 353 15 334 36 279 315 64 77 16 324 341 33 19 344 6 24 62 100 312 316 256 309 342 334 5 348 337 288 318 310 310 46 228 219 177 159 111 217 166 245
345 343 342 347 346 353 64 42 19 334 36 47 94 23 320 347 327 65 22 303 56 19 289 235 278 290 297 310 278 246 165 224 218 251 261 303 294 295 294 210 172 216 227 161
346 343 343 341 340 342 82 24 3 181 331 0 356 314 307 319 357 24 23 353 67 22 287 291 254 275 306 282 272 266 184 223 229 259 262 264 271 272 278 267 246 183 233 196
344 341 342 339 347 349 66 75 46 354 310 322 26 358 358 4 7 358 296 204 347 320 247 249 282 284 283 266 279 221 202 263 265 255 264 249 256 254 265 260 261 240 188 217
343 343 344 342 353 41 35 320 335 106 288 351 65 210 353 327 330 281 172 350 317 288 269 268 267 265 270 255 250 253 228 244 268 269 260 274 263 235 245 244 206 193 197 205
341 343 346 343 348 97 130 302 59 73 286 77 234 333 312 316 319 273 294 287 256 264 327 308 271 252 247 248 254 227 234 195 217 268 271 239 242 215 217 220 232 198 104 156
335 340 343 341 341 145 107 315 38 22 283 263 293 305 295 314 287 259 271 287 223 285 293 281 314 304 315 265 244 261 219 201 231 248 245 290 209 146 158 165 233 212 164 172
329 334 341 340 333 156 96 257 200 251 9 260 111 299 246 286 295 318 256 301 290 293 234 203 243 254 271 301 333 322 177 221 205 239 309 267 201 151 61 185 274 175 153 155
327 332 339 340 329 202 117 275 227 283 264 270 132 202 185 259 349 284 295 334 317 344 316 255 228 253 263 301 316 332 265 188 226 253 253 273 252 276 252 142 238 168 166 164
324 328 335 334 334 332 123 261 235 233 250 272 235 243 254 272 163 234 313 319 315 344 325 318 312 344 311 220 207 265 286 208 198 184 202 258 198 271 211 282 258 171 162 160
320 325 331 334 334 332 150 281 297 213 236 257 219 235 238 230 240 250 233 255 343 257 297 329 328 286 255 272 273 242 352 52 285 271 231 289 315 281 271 295 191 125 142 141
316 321 328 328 316 314 188 224 261 5 265 270 264 244 255 219 228 217 227 215 214 223 197 234 249 265 229 292 247 252 235 229 228 293 239 260 264 310 18 21 53 74 98 123
315 318 322 324 319 314 236 212 201 204 279 279 285 321 278 212 204 203 210 232 238 233 204 236 275 273 221 246 259 243 254 312 301 281 284 304 314 22 7 348 110 98 96 114
314 316 320 325 326 313 262 238 222 211 225 287 301 303 279 206 189 225 216 218 222 238 239 223 244 235 261 232 263 253 190 213 185 250 268 278 276 335 317 242 144 150 124 122
312 313 317 319 316 313 36 331 41 208 179 297 298 284 287 298 224 221 199 200 200 210 210 222 223 234 181 257 254 246 241 239 216 261 197 259 277 260 245 106 82 111 125 132
308 307 310 309 308 257 187 198 124 116 129 254 282 278 278 281 276 265 148 173 190 198 223 224 244 254 202 254 263 260 244 244 236 243 260 292 346 111 109 108 110 118 129 136
305 304 303 304 291 253 276 247 235 166 223 255 270 268 330 297 298 291 171 173 191 204 229 253 220 216 208 249 243 246 239 244 259 248 212 250 174 103 96 103 125 130 138 134
300 304 299 284 188 230 242 314 176 176 165 249 247 255 277 344 330 288 309 230 237 190 224 228 167 205 226 229 222 227 208 210 247 202 236 242 201 121 128 120 122 136 153 141
307 300 267 268 216 278 282 355 184 182 218 229 249 212 265 26 359 288 288 214 227 217 230 150 215 248 251 254 237 234 193 216 213 220 202 207 219 98 78 105 129 159 159 147
186 231 233 258 305 359 227 241 207 173 229 208 234 214 235 216 186 229 221 274 264 263 219 194 232 272 257 287 263 227 198 191 204 225 267 210 205 138 146 160 156 159 165 157
236 276 289 282 261 233 244 220 219 200 241 191 198 219 198 241 205 211 231 243 231 246 176 243 252 249 299 301 323 328 193 185 191 205 235 192 183 172 156 146 150 158 153 149
331 224 244 196 203 226 231 196 217 236 223 244 261 264 217 255 206 243 214 235 235 90 198 230 232 293 321 327 324 49 142 170 182 233 220 202 177 171 146 140 139 148 144 147
233 212 245 225 216 222 215 223 246 255 261 306 256 262 230 275 284 331 262 235 269 257 250 281 321 316 321 327 341 328 233 204 210 260 224 176 173 167 148 137 141 145 150 153
246 231 235 226 261 292 292 285 269 251 243 270 297 289 184 239 224 177 280 264 249 226 245 238 276 296 291 292 304 307 271 120 264 309 210 171 157 150 150 139 144 144 141 147
230 237 240 245 279 273 245 227 266 296 271 298 308 280 278 242 224 195 237 248 240 303 322 291 295 289 279 271 276 295 264 152 94 342 205 160 158 159 143 136 141 141 148 149
239 252 221 231 278 236 235 263 260 261 303 189 59 244 253 311 251 244 269 260 322 313 309 306 288 293 300 289 284 263 296 338 40 193 160 160 146 131 129 133 143 146 156 157